Regional Weather Roundup
Issued by NWS

Home | Current Version | Previous Version | Graphics & Text | Print | Product List | Glossary On
Versions: 1 2 3 4 5 6 7 8 9 10 11 12 13 14 15 16 17 18 19 20 21 22 23 24 25 26 27 28 29 30 31 32 33 34 35 36 37 38 39 40 41 42 43 44 45 46 47 48 49 50
000
ASUS43 KLMK 290010
RWRKY
KENTUCKY REGIONAL WEATHER ROUNDUP
NATIONAL WEATHER SERVICE LOUISVILLE KY
800 PM EDT TUE MAR 28 2017

NOTE "FAIR" INDICATES FEW OR NO CLOUDS BELOW 12,000 FEET
WITH NO SIGNIFICANT WEATHER AND/OR OBSTRUCTIONS TO VISIBILITY.

KYZ001>023-026-027-061>063-070>075-290100-
WESTERN AND SOUTH CENTRAL KENTUCKY

CITY           SKY/WX    TMP DP  RH WIND       PRES   REMARKS
PADUCAH        CLOUDY    60  51  72 NE8       30.03R
HENDERSON      CLOUDY    59  50  72 E6        30.05S
OWENSBORO      MOCLDY   N/A N/A N/A NW7       30.07R
HOPKINSVILLE   MOCLDY    59  56  89 N9        30.03S
BOWLING GREEN  CLOUDY    62  55  77 NW5       30.05R
GLASGOW        CLOUDY    61  58  88 CALM      30.04R
$$

KYZ024-025-028>034-038-045-046-053-290100-
NORTH CENTRAL KENTUCKY

CITY           SKY/WX    TMP DP  RH WIND       PRES   REMARKS
LOUISVILLE/SDF PTCLDY    60  48  64 N12       30.06R
LOUISVILLE/LOU CLEAR     61  49  64 N5        30.07R
FORT KNOX      CLOUDY    61  52  71 N9        30.04R
$$

KYZ035>037-039>044-047>052-055>060-089>105-290100-
NORTHEAST KENTUCKY

CITY           SKY/WX    TMP DP  RH WIND       PRES   REMARKS
LEXINGTON      CLOUDY    59  52  77 N5        30.05R
COVINGTON      CLOUDY    56  50  80 NE7       30.07R
FRANKFORT      CLOUDY    60  52  74 N3        30.04R
$$

KYZ054-064>069-076>088-106>120-290100-
SOUTHEAST KENTUCKY

CITY           SKY/WX    TMP DP  RH WIND       PRES   REMARKS
JACKSON        CLOUDY    60  52  74 VRB3      30.04R
LONDON         CLOUDY    61  51  70 NW6       30.04R
SOMERSET       CLOUDY    59  52  77 N3        30.06R
MIDDLESBORO    MOCLDY    63  51  65 CALM      30.03R
MONTICELLO     CLOUDY    61  53  75 N14       30.06R
$$





USA.gov is the U.S. government's official web portal to all federal, state and local government web resources and services.